Location: Westminster College Observatory
(41.1194°N, 80.3291°W)
Time: 00:24:30
(UTC-04:00)

ISS - Visible Passes

Search period start: 27 April 2018 00:00
Search period end: 07 May 2018 00:00
Orbit: 402 x 407 km, 51.6° (Epoch: 27 April)

Date Brightness Start Highest point End Pass type
(mag) Time Alt. Az. Time Alt. Az. Time Alt. Az.
29 Apr -0.9 05:39:23 10° SE 05:40:16 11° SE 05:41:08 10° ESE visible
01 May -2.1 05:29:05 10° SSW 05:31:50 26° SE 05:34:37 10° ENE visible
02 May -1.3 04:38:25 11° SSE 04:39:44 14° SE 04:41:28 10° E visible
03 May -3.6 05:20:55 15° SW 05:23:31 65° SE 05:26:46 10° ENE visible
04 May -2.7 04:30:39 29° SSE 04:31:16 32° SE 04:34:14 10° ENE visible
05 May -1.2 03:40:20 14° ESE 03:40:20 14° ESE 03:41:19 10° E visible
05 May -3.4 05:12:58 17° WSW 05:15:17 53° NNW 05:18:30 10° NE visible
06 May -4.0 04:22:34 68° SSW 04:22:54 82° SE 04:26:11 10° NE visible
